Indianapolis, IN

5:08 AM EDT on April 24, 2017 (GMT -0400)
Indianapolis International

Weather History for KIND - November, 2013

Change the Weather History Date:

Sunday, November 17, 2013

  Actual Average Record
Temperature  
Mean Temperature 57 °F 43 °F  
Max Temperature 66 °F 52 °F 77 °F (1958)
Min Temperature 48 °F 35 °F 4 °F (1959)
Degree Days  
Heating Degree Days 8 22  
Month to date heating degree days 346 313  
Since 1 July heating degree days 726 714  
Cooling Degree Days 0 0  
Month to date cooling degree days 0 0  
Year to date cooling degree days 1160 1065  
Growing Degree Days 7 (Base 50)    
Moisture  
Dew Point 55 °F    
Average Humidity 80    
Maximum Humidity 100    
Minimum Humidity 59    
Precipitation  
Precipitation 2.48 in 0.13 in 2.48 in (2013)
Month to date precipitation 2.92 2.05  
Year to date precipitation 41.17 37.62  
Snow  
Snow 0.00 in 0.00 in 2.10 in (1980)
Month to date snowfall 0.1 0.2  
Since 1 July snowfall 0.1 0.6  
Since 1 September snowfall 0.1 0.6  
Snow Depth 0.00 in    
Sea Level Pressure  
Sea Level Pressure 29.65 in    
Wind  
Wind Speed 20 mph (South)    
Max Wind Speed 49 mph    
Max Gust Speed 67 mph    
Visibility 7 miles    
Events Fog , Rain , Thunderstorm    
T = Trace of Precipitation, MM = Missing Value Source: NWS Daily Summary

Daily Weather History Graph

Daily Weather History Graph

Search for Another Location

Airport or City:

Trip Planner

Search our weather history database for the weather conditions in past years. The results will help you decide how hot, cold, wet, or windy it might be!

Date:

Astronomy

Nov. 17, 2013 Rise Set
Actual Time 7:32 AM EST 5:27 PM EST
Civil Twilight 7:03 AM EST 5:56 PM EST
Nautical Twilight 6:30 AM EST 6:29 PM EST
Astronomical Twilight 5:58 AM EST 7:01 PM EST
Moon 5:44 PM EST (11/17) 7:25 AM EST (11/17)
Length of Visible Light 10h 53m
Length of Day
9h 55m
Full, 100% of the Moon is Illuminated
Nov 17
Full
Nov 25
Last Quarter
Dec 2
New
Dec 9
First Quarter
Dec 17
Full

Hourly Weather History & Observations

Time (EST) Temp. Dew Point Humidity Pressure Visibility Wind Dir Wind Speed Gust Speed Precip Events Conditions
12:12 AM 60.8 °F 57.2 °F 88% 29.80 in 7.0 mi SSW 16.1 mph 28.8 mph 0.03 in Rain , Thunderstorm Light Thunderstorms and Rain
12:25 AM 60.8 °F 57.2 °F 88% 29.78 in 7.0 mi South 18.4 mph 24.2 mph 0.05 in Rain , Thunderstorm Light Thunderstorms and Rain
12:44 AM 60.8 °F 57.2 °F 88% 29.79 in 4.0 mi South 12.7 mph - 0.08 in Rain , Thunderstorm Thunderstorms and Rain
12:54 AM 60.1 °F 57.9 °F 93% 29.78 in 4.0 mi South 9.2 mph - 0.10 in Rain , Thunderstorm Thunderstorms and Rain
12:58 AM 60.8 °F 57.2 °F 88% 29.77 in 4.0 mi South 9.2 mph - 0.01 in Rain , Thunderstorm Thunderstorms and Rain
1:12 AM 60.8 °F 57.2 °F 88% 29.75 in 2.5 mi SE 10.4 mph - 0.09 in Rain , Thunderstorm Heavy Thunderstorms and Rain
1:22 AM 60.8 °F 57.2 °F 88% 29.74 in 2.5 mi SE 6.9 mph - 0.17 in Rain , Thunderstorm Heavy Thunderstorms and Rain
1:26 AM 60.8 °F 57.2 °F 88% 29.74 in 2.5 mi SE 9.2 mph - 0.19 in Rain , Thunderstorm Thunderstorms and Rain
1:43 AM 60.8 °F 57.2 °F 88% 29.73 in 3.0 mi SE 10.4 mph - 0.28 in Rain , Thunderstorm Heavy Thunderstorms and Rain
1:54 AM 59.0 °F 57.9 °F 96% 29.77 in 2.0 mi Variable 5.8 mph - 0.35 in Rain , Thunderstorm Heavy Thunderstorms and Rain
1:59 AM 59.0 °F 57.2 °F 94% 29.79 in 1.0 mi WNW 16.1 mph 20.7 mph 0.17 in Rain , Thunderstorm Heavy Thunderstorms and Rain
2:06 AM 60.8 °F 57.2 °F 88% 29.77 in 3.0 mi NW 6.9 mph - 0.46 in Rain , Thunderstorm Light Thunderstorms and Rain
2:26 AM 59.0 °F 57.2 °F 94% 29.76 in 4.0 mi ESE 4.6 mph - 0.55 in Rain , Thunderstorm Thunderstorms and Rain
2:54 AM 57.9 °F 57.9 °F 100% 29.73 in 6.0 mi SE 10.4 mph - 0.61 in Rain , Thunderstorm Light Thunderstorms and Rain
3:00 AM 57.2 °F 57.2 °F 100% 29.74 in 8.0 mi SSE 9.2 mph - 0.00 in Rain Light Rain
3:54 AM 57.0 °F 55.9 °F 96% 29.73 in 5.0 mi SSE 11.5 mph - 0.11 in Rain Rain
4:10 AM 55.4 °F 55.4 °F 100% 29.73 in 10.0 mi SSE 12.7 mph - 0.02 in Rain Light Rain
4:16 AM 57.2 °F 55.4 °F 94% 29.73 in 10.0 mi SSE 13.8 mph - 0.02 in   Overcast
4:47 AM 55.4 °F 55.4 °F 100% 29.72 in 10.0 mi SSE 12.7 mph - 0.03 in Rain Light Rain
4:54 AM 55.9 °F 55.9 °F 100% 29.72 in 5.0 mi SE 11.5 mph - 0.07 in Rain Rain
5:16 AM 55.4 °F 55.4 °F 100% 29.71 in 10.0 mi SE 12.7 mph - 0.01 in   Overcast
5:48 AM 57.2 °F 57.2 °F 100% 29.71 in 10.0 mi SSE 13.8 mph - 0.05 in   Mostly Cloudy
5:54 AM 57.0 °F 57.0 °F 100% 29.71 in 10.0 mi SSE 11.5 mph - 0.05 in Rain Light Rain
6:10 AM 57.2 °F 57.2 °F 100% 29.70 in 10.0 mi SSE 9.2 mph - 0.00 in   Overcast
6:21 AM 57.2 °F 57.2 °F 100% 29.70 in 10.0 mi SSE 9.2 mph - 0.00 in   Overcast
6:54 AM 57.0 °F 57.0 °F 100% 29.68 in 10.0 mi SSE 8.1 mph - 0.00 in   Overcast
7:09 AM 57.2 °F 55.4 °F 94% 29.68 in 10.0 mi SSE 9.2 mph - N/A   Scattered Clouds
7:54 AM 59.0 °F 57.0 °F 93% 29.66 in 10.0 mi South 17.3 mph 23.0 mph N/A   Scattered Clouds
8:37 AM 59.0 °F 57.2 °F 94% 29.67 in 10.0 mi South 21.9 mph 26.5 mph N/A   Mostly Cloudy
8:54 AM 60.1 °F 57.0 °F 90% 29.67 in 10.0 mi South 18.4 mph 27.6 mph N/A   Mostly Cloudy
9:27 AM 60.8 °F 57.2 °F 88% 29.66 in 10.0 mi South 19.6 mph - N/A   Overcast
9:54 AM 61.0 °F 57.0 °F 87% 29.65 in 10.0 mi South 20.7 mph 27.6 mph N/A   Mostly Cloudy
10:35 AM 62.6 °F 57.2 °F 82% 29.65 in 10.0 mi South 23.0 mph 28.8 mph N/A   Overcast
10:54 AM 63.0 °F 57.9 °F 84% 29.64 in 10.0 mi South 21.9 mph 32.2 mph N/A   Overcast
11:54 AM 63.0 °F 57.9 °F 84% 29.58 in 10.0 mi South 24.2 mph 34.5 mph 0.00 in Rain Light Rain
12:54 PM 64.0 °F 59.0 °F 84% 29.52 in 10.0 mi South 21.9 mph 31.1 mph 0.00 in   Overcast
1:54 PM 64.9 °F 59.0 °F 81% 29.45 in 10.0 mi South 21.9 mph 31.1 mph N/A   Overcast
2:54 PM 66.0 °F 60.1 °F 81% 29.42 in 10.0 mi South 24.2 mph 33.4 mph N/A   Overcast
3:39 PM 64.4 °F 60.8 °F 88% 29.44 in 1.2 mi SSW 21.9 mph - 0.10 in Rain Heavy Rain
3:44 PM 64.4 °F 62.6 °F 94% 29.42 in 0.5 mi SSW 28.8 mph 39.1 mph 0.17 in Fog , Rain Heavy Rain
3:54 PM 62.1 °F 59.0 °F 90% 29.42 in 0.5 mi SW 50.6 mph 66.7 mph 0.56 in Fog , Rain Heavy Rain
4:03 PM 60.8 °F 60.8 °F 100% 29.41 in 3.0 mi SSW 32.2 mph 55.2 mph 0.29 in Rain Light Rain
4:25 PM 64.4 °F 60.8 °F 88% 29.44 in 10.0 mi West 18.4 mph - 0.32 in Rain Light Rain
4:31 PM 62.6 °F 59.0 °F 88% 29.46 in 0.5 mi SW 33.4 mph 47.2 mph 0.32 in Fog , Rain Light Rain
4:36 PM 59.0 °F 57.2 °F 94% 29.43 in 0.2 mi SW 44.9 mph 62.1 mph 0.43 in Fog , Rain , Thunderstorm Light Thunderstorms and Rain
4:43 PM 57.2 °F 57.2 °F 100% 29.45 in 7.0 mi WSW 32.2 mph 57.5 mph 0.64 in Rain , Thunderstorm Light Thunderstorms and Rain
4:54 PM 62.1 °F 55.9 °F 80% 29.46 in 8.0 mi WSW 35.7 mph 55.2 mph 0.64 in Rain Light Rain
5:54 PM 60.1 °F 46.0 °F 60% 29.56 in 10.0 mi West 35.7 mph 43.7 mph 0.01 in   Partly Cloudy
6:54 PM 55.9 °F 44.1 °F 64% 29.63 in 10.0 mi West 25.3 mph 33.4 mph N/A   Partly Cloudy
7:54 PM 53.1 °F 39.0 °F 59% 29.68 in 10.0 mi West 26.5 mph 35.7 mph N/A   Clear
8:54 PM 51.1 °F 39.0 °F 63% 29.70 in 10.0 mi West 15.0 mph 25.3 mph N/A   Clear
9:54 PM 50.0 °F 39.0 °F 66% 29.73 in 10.0 mi West 15.0 mph - N/A   Clear
10:54 PM 48.9 °F 39.0 °F 69% 29.76 in 10.0 mi West 16.1 mph - N/A   Clear
11:54 PM 48.9 °F 39.9 °F 71% 29.81 in 10.0 mi West 18.4 mph 26.5 mph N/A   Clear